Flag for Switzerland Weather past 2 weeks in Volketswil, Zurich, Switzerland

Now
60 °F

Partly sunny.


Feels Like: 59 °F
Forecast: 49 / 61 °F
Wind: 7 mph from West

Location: Zurich Town / Ville.

Current Time: Sep 5, 2015 at 3:24:15 PM

Latest Report: Sep 5, 2015 at 2:00 PM


Visibility: N/A

Pressure: 30.06 "Hg

Humidity: 52%

Dew point: 42 °F

Location of VolketswilLocation

Historic Weather in Volketswil — Graph

°F

Volketswil temperature yesterday

Maximum temperature yesterday: 65 °F (at 5:00 PM)
Minimum temperature yesterday: 53 °F (at 7:00 AM)
Average temperature yesterday: 59 °F

Past Weeks' High & Low Weather Summary

 TemperatureHumidityPressure
High89 °F (Aug 30, 4:00 PM)98% (Aug 24, 2:00 AM)30.17 "Hg (Aug 24, 2:00 AM)
Low51 °F (Sep 5, 3:00 AM)23% (Aug 30, 3:00 PM)29.70 "Hg (Aug 24, 2:00 PM)
Average67 °F68%29.98 "Hg
* Reported Aug 21 2:00 PM — Sep 5 2:00 PM, Volketswil, Weather by CustomWeather, © 2015

Note: Actual official high and low records may vary slightly from our data, if they occured in-between our weather recording intervals... More about our weather records

Advertising

Volketswil weather history for previous 24 hours

 ConditionsComfort  
Time TempWeatherWind HumidityBarometerVisibility
2:00 PM
Sat, Sep 5
60 °FPartly sunny.7 mph52%30.06 "HgN/A
1:00 PM57 °FRefreshingly cool.5 mph52%30.06 "HgN/A
12:00 PM57 °FCool.3 mph64%30.06 "HgN/A
11:40 AM56 °FCool.3 mph67%30.07 "HgN/A
11:00 AM57 °FCool.3 mph67%30.06 "HgN/A
10:00 AM54 °FCool.3 mph76%30.06 "HgN/A
9:00 AM53 °FCool.2 mph83%30.06 "HgN/A
8:00 AM52 °FCool.3 mph92%30.05 "HgN/A
7:00 AM51 °FCool.2 mph95%30.04 "HgN/A
6:00 AM51 °FCool.1 mph93%30.03 "HgN/A
4:00 AM51 °FCool.5 mph95%30.04 "HgN/A
3:00 AM51 °FCool.6 mph89%30.04 "HgN/A
2:00 AM52 °FCool.3 mph91%30.04 "HgN/A
1:00 AM57 °FRefreshingly cool.6 mph56%30.01 "HgN/A
12:00 AM58 °FRefreshingly cool.5 mph57%29.99 "HgN/A
10:00 PM
Fri, Sep 4
61 °FRefreshingly cool.3 mph49%29.98 "HgN/A
9:00 PM62 °FRefreshingly cool.3 mph48%29.96 "HgN/A
7:00 PM63 °FMild.3 mph51%29.94 "HgN/A
6:00 PM64 °FMild.2 mph49%29.93 "HgN/A
5:00 PM65 °FMild.3 mph48%29.93 "HgN/A
4:00 PM64 °FMild.5 mph49%29.95 "HgN/A
3:00 PM64 °FMild.3 mph51%29.97 "HgN/A
Weather by CustomWeather, © 2015

See weather overviewHow to use our weather pages